Regional Weather Roundup
Issued by NWS State College, PA

Home | Current Version | Previous Version | Text Only | Print | Product List | Glossary Off
Versions: 1 2 3 4 5 6 7 8 9 10 11 12 13 14 15 16 17 18 19 20 21 22 23 24 25 26 27 28 29 30 31 32 33 34 35 36 37 38 39 40 41 42 43 44 45 46 47 48 49 50

000
ASUS41 KCTP 060510
RWRCTP

REGIONAL WEATHER ROUNDUP
NATIONAL WEATHER SERVICE STATE COLLEGE PA
100 AM EDT WED MAY 06 2015

Note: "fair" indicates few or no clouds below 12,000 feet with no
significant weather and/or obstructions to visibility.

* = STATION THAT DOES NOT REPORT PRECIPITATION /E.G. RAIN...SNOW...ETC/
    THUNDER OR FOG.

PAZ002>004-007>009-013>016-020>023-029>032-060600-
WESTERN PENNSYLVANIA

CITY           SKY/WX    TMP DP  RH WIND       PRES   REMARKS
ERIE           LGT RAIN  51  50  96 N5        30.25R FOG
MEADVILLE      RAIN      59  57  93 CALM      30.26R VSB 1
FRANKLIN*      CLOUDY    59  55  88 NW5       30.28R
NEW CASTLE     FAIR      61  61 100 CALM      30.26R
BEAVER COUNTY  NOT AVBL
BUTLER*        CLEAR     59  55  88 NE7       30.26R
PITTSBURGH INT PTCLDY    61  60  97 CALM      30.23S
PITTSBURGH     CLEAR     66  55  67 S3        30.23S
INDIANA*       CLOUDY    59  57  94 CALM      30.28S
LATROBE        CLEAR     59  59 100 CALM      30.25S
WASHINGTON CO* CLEAR     57  55  94 CALM      30.25S
$$

PAZ004>006-010>012-017>019-024>028-033>037-041-042-045-046-049>053-060600-
CENTRAL PENNSYLVANIA

CITY           SKY/WX    TMP DP  RH WIND       PRES   REMARKS
BRADFORD       LGT RAIN  55  54  96 E5        30.28F FOG
DUBOIS         MOCLDY    59  55  87 E5        30.26S
CLEARFIELD     MOCLDY    58  56  93 N5        30.26S FOG
JOHNSTOWN      PTCLDY    62  56  80 SE3       30.26F
ALTOONA        PTCLDY    62  55  77 CALM      30.25F
STATE COLLEGE  MOCLDY    60  59  96 NE5       30.25F FOG
WILLIAMSPORT   CLOUDY    63  56  78 N6        30.24S
SELINSGROVE    CLOUDY    63  61  93 CALM      30.24R FOG
FT INDIANTOWN  CLOUDY    63  62  96 CALM      30.22S FOG
CAPITAL CITY   MOCLDY    66  61  84 E5        30.23R
HARRISBURG     MOCLDY    65  61  87 SE6       30.22S
YORK           PTCLDY    64  58  80 CALM      30.23R
$$

PAZ038>040-043-044-047-048-054-055-060>062-067>071-060600-
EASTERN PENNSYLVANIA

CITY           SKY/WX    TMP DP  RH WIND       PRES   REMARKS
SCRANTON       LGT RAIN  66  48  52 NE7       30.25R
MOUNT POCONO   CLOUDY    63  43  48 N5        30.26S
ALLENTOWN      CLOUDY    68  56  65 CALM      30.21S
QUAKERTOWN*    CLOUDY    64  59  82 CALM      30.23R
READING        CLOUDY    66  59  78 CALM      30.21S
LANCASTER      CLOUDY    63  61  93 CALM      30.23S
COATESVILLE    CLOUDY    64  64 100 CALM      30.24F FOG
POTTSTOWN      CLOUDY    67  59  75 CALM      30.23R
BLUE BELL      CLOUDY    68  61  77 CALM      30.21S
DOYLESTOWN     CLOUDY    68  56  65 SW3       30.21R
WILLOW GROVE   NOT AVBL
NORTH PHILA    CLOUDY    73  58  59 CALM      30.22S
PHILADELPHIA   CLOUDY    70  61  73 SW8       30.22R
$$



USA.gov is the U.S. government's official web portal to all federal, state and local government web resources and services.